This is the latest recevied weather packets stored in our database for station/object KP4OZ. If no packets are shown the sender has not sent any weather packets the latest 10 day(s).
| Time | Temp. | Humidity | Pressure | Rain* | Wind** | Luminosity | Snow |
|---|---|---|---|---|---|---|---|
| 1777415501 | 24.44° C | 89% | 1015.5 hPa | 1.27 mm | - | - | - |
| 1777415196 | 24.44° C | 88% | 1015.5 hPa | 1.27 mm | - | - | - |
| 1777414892 | 24.44° C | 88% | 1015.6 hPa | 0 mm | - | - | - |
| 1777414590 | 24.44° C | 88% | 1015.5 hPa | 0 mm | - | - | - |
| 1777414286 | 24.44° C | 87% | 1015.6 hPa | 0 mm | - | - | - |
| 1777413981 | 24.44° C | 87% | 1015.8 hPa | 0 mm | - | - | - |
| 1777413676 | 24.44° C | 87% | 1015.8 hPa | 0 mm | - | - | - |
| 1777413373 | 24.44° C | 87% | 1016 hPa | 0 mm | - | - | - |
| 1777413069 | 24.44° C | 87% | 1015.7 hPa | 0 mm | - | - | - |
| 1777412764 | 24.44° C | 87% | 1015.8 hPa | 0 mm | - | - | - |
| 1777412462 | 24.44° C | 86% | 1015.8 hPa | 0 mm | - | - | - |
| 1777412160 | 24.44° C | 87% | 1015.5 hPa | 1.78 mm | - | - | - |
| 1777411856 | 24.44° C | 88% | 1015.6 hPa | 1.78 mm | - | - | - |
| 1777411555 | 24.44° C | 88% | 1015.7 hPa | 0 mm | - | - | - |
| 1777411250 | 24.44° C | 88% | 1015.7 hPa | 0 mm | - | - | - |
| 1777410944 | 24.44° C | 87% | 1015.6 hPa | 1.27 mm | - | - | - |
| 1777410644 | 24.44° C | 87% | 1015.6 hPa | 1.27 mm | - | - | - |
| 1777410339 | 24.44° C | 87% | 1015.6 hPa | 0 mm | - | - | - |
| 1777410034 | 24.44° C | 88% | 1015.5 hPa | 0 mm | - | - | - |
| 1777409734 | 24.44° C | 88% | 1015.4 hPa | 0 mm | - | - | - |
| 1777409430 | 24.44° C | 87% | 1015.5 hPa | 1.78 mm | - | - | - |
| 1777409126 | 24.44° C | 86% | 1015.5 hPa | 3.05 mm | - | - | - |
| 1777408822 | 25° C | 86% | 1015.4 hPa | 1.27 mm | - | - | - |
| 1777408519 | 25° C | 86% | 1015.6 hPa | 0 mm | - | - | - |
| 1777408218 | 25° C | 86% | 1015.6 hPa | 0 mm | - | - | - |
* Rain latest hour (hover to see other rain measurements)
** Current wind speed in m/s (hover to see current wind gust speed)